Regional Weather Roundup
Issued by NWS

Home | Current Version | Previous Version | Graphics & Text | Print | Product List | Glossary On
Versions: 1 2 3 4 5 6 7 8 9 10 11 12 13 14 15 16 17 18 19 20 21 22 23 24 25 26 27 28 29 30 31 32 33 34 35 36 37 38 39 40 41 42 43 44 45 46 47 48 49 50
000
ASUS43 KMKX 211211
RWRWI

WISCONSIN REGIONAL WEATHER ROUNDUP
NATIONAL WEATHER SERVICE MILWAUKEE/SULLIVAN WI
600 AM CST FRI NOV 21 2014

NOTE: "FAIR" INDICATES FEW OR NO CLOUDS BELOW 12,000 FEET WITH NO
SIGNIFICANT WEATHER AND/OR OBSTRUCTIONS TO VISIBILITY.

WIZ001-002-006>008-014>016-023>028-211300-
NORTHWEST WISCONSIN

CITY           SKY/WX    TMP DP  RH WIND       PRES   REMARKS
SUPERIOR ARPT  MOCLDY    -2  -6  84 SW3       30.20S
6HR MIN TEMP:  -3; 6HR MAX TEMP:   3;

ASHLAND        MOCLDY     0  -4  83 CALM      30.22F
6HR MIN TEMP:  -2; 6HR MAX TEMP:   6;

HAYWARD        PTCLDY   -10 -16  74 CALM      30.20F
6HR MIN TEMP: -14; 6HR MAX TEMP:  -8;

SIREN          MOCLDY    -8 -13  78 SE5       30.20F WCI -19
6HR MIN TEMP:  -9; 6HR MAX TEMP:  -2;

CUMBERLAND     PTCLDY    -8 -13  77 S3        30.21F
RICE LAKE      PTCLDY    -5  -9  82 CALM      30.25F
6HR MIN TEMP:  -8; 6HR MAX TEMP:  -4;

CHETEK         PTCLDY   -10 -15  80 CALM      30.25F
6HR MIN TEMP: -10; 6HR MAX TEMP:  -4;

LADYSMITH      PTCLDY    -5  -9  82 SE3       30.25F
6HR MIN TEMP: -11; 6HR MAX TEMP:  -5;

EAU CLAIRE     PTCLDY    -2  -7  79 CALM      30.28S
6HR MIN TEMP:  -4; 6HR MAX TEMP:   4;

MENOMONIE      PTCLDY    -3  -7  82 CALM      30.28R
6HR MIN TEMP:  -4; 6HR MAX TEMP:  -1;

NEW RICHMOND   PTCLDY     2  -3  83 SE5       30.22F WCI  -8
6HR MIN TEMP:  -4; 6HR MAX TEMP:   2;

OSCEOLA        PTCLDY     4   0  84 SE5       30.25F WCI  -5
6HR MIN TEMP:  -6; 6HR MAX TEMP:   4;

$$

WIZ003>005-009-010-017-018-211300-
NORTH CENTRAL WISCONSIN

CITY           SKY/WX    TMP DP  RH WIND       PRES   REMARKS
MANITOWISH WTR MOCLDY     1  -4  80 S5        30.18S WCI  -9
6HR MIN TEMP: -11; 6HR MAX TEMP:   1;

ARBOR VITAE    MOCLDY     4  -2  77 S3        30.19S
6HR MIN TEMP:  -4; 6HR MAX TEMP:   4;

WOODRUFF       MOCLDY     4  -2  77 S3        30.19S
6HR MIN TEMP:  -4; 6HR MAX TEMP:   4;

RHINELANDER    CLOUDY     2  -2  83 CALM      30.21F
6HR MIN TEMP:  -8; 6HR MAX TEMP:   2;

EAGLE RIVER    MOCLDY     2  -3  77 CALM      30.20R
6HR MIN TEMP:  -7; 6HR MAX TEMP:   3;

LAND O LAKES   PTCLDY    -3  -7  83 CALM      30.20R
6HR MIN TEMP: -13; 6HR MAX TEMP:   3;

PHILLIPS       MOCLDY    -1  -5  83 CALM      30.20F
6HR MIN TEMP: -15; 6HR MAX TEMP:   0;

TOMAHAWK       PTCLDY     1  -4  82 CALM      30.23F
6HR MIN TEMP: -13; 6HR MAX TEMP:   1;

MEDFORD        PTCLDY    -4  -7  84 S3        30.22F
6HR MIN TEMP:  -8; 6HR MAX TEMP:  -3;

MERRILL        MOCLDY    -2  -6  83 CALM      30.25F
6HR MIN TEMP: -11; 6HR MAX TEMP:  -2;

$$

WIZ029-030-035-036-043>047-211300-
CENTRAL WISCONSIN

CITY           SKY/WX    TMP DP  RH WIND       PRES   REMARKS
WAUSAU         MOCLDY     0  -4  83 CALM      30.28R
6HR MIN TEMP:  -2; 6HR MAX TEMP:   3;

MOSINEE        CLEAR     -2  -4  92 CALM      30.29R
MARSHFIELD     MOCLDY    -2  -7  79 CALM      30.28S
6HR MIN TEMP:  -3; 6HR MAX TEMP:   2;

STEVENS POINT  MOCLDY    -7 -12  79 CALM      30.32R
6HR MIN TEMP:  -9; 6HR MAX TEMP:   3;

WAUPACA        MOCLDY     3  -1  80 CALM      30.35R
6HR MIN TEMP:   2; 6HR MAX TEMP:  10;

WAUTOMA        PTCLDY    -6 -12  75 CALM      30.36R
6HR MIN TEMP:  -8; 6HR MAX TEMP:   3;

WISC RAPIDS    MOCLDY    -5 -11  75 CALM      30.34R
6HR MIN TEMP:  -6; 6HR MAX TEMP:   0;

CAMP DOUGLAS   PTCLDY    -2  -5  87 SE5       30.33S WCI -13
6HR MIN TEMP:  -4; 6HR MAX TEMP:   0;

$$

WIZ011>013-019>022-031-037>040-048>050-211300-
NORTHEAST WISCONSIN

CITY           SKY/WX    TMP DP  RH WIND       PRES   REMARKS
ANTIGO         MOCLDY    -1  -4  87 CALM      30.24F
6HR MIN TEMP: -11; 6HR MAX TEMP:  -1;

SHAWANO        MOCLDY     7   1  76 CALM      30.34R
6HR MIN TEMP:   4; 6HR MAX TEMP:   8;

OCONTO         PTCLDY     7   1  76 W3        30.34S
6HR MIN TEMP:   4; 6HR MAX TEMP:   8;

STURGEON BAY   CLEAR     12   7  79 SW7       30.33R WCI   2
6HR MIN TEMP:  10; 6HR MAX TEMP:  14;

GREEN BAY      PTCLDY     5  -1  76 CALM      30.36R
6HR MIN TEMP:   3; 6HR MAX TEMP:   8;

MANITOWOC      PTCLDY     7   2  80 W7        30.37R WCI  -5
6HR MIN TEMP:   7; 6HR MAX TEMP:  10;

APPLETON       MOCLDY     5  -2  72 VRB5      30.35R WCI  -4
CLINTONVILLE   MOCLDY     7   1  78 CALM      30.34R
OSHKOSH        MOCLDY     2  -3  80 S5        30.36R WCI  -8
6HR MIN TEMP:   1; 6HR MAX TEMP:   8;

$$

WIZ032>034-041-042-053>061-211300-
SOUTHWEST WISCONSIN

CITY           SKY/WX    TMP DP  RH WIND       PRES   REMARKS
LA CROSSE      MOCLDY     6   1  80 SE7       30.34S WCI  -6
6HR MIN TEMP:   4; 6HR MAX TEMP:   9;

SPARTA         PTCLDY    -8 -12  81 CALM      30.34S
6HR MIN TEMP:  -8; 6HR MAX TEMP:  -4;

VIROQUA        MOCLDY     6   2  85 S6        30.28F WCI  -5
6HR MIN TEMP:   5; 6HR MAX TEMP:   8;

BOSCOBEL       PTCLDY    -1  -6  79 CALM      30.38S HAZE
6HR MIN TEMP:  -2; 6HR MAX TEMP:   5;

PRAIRIE DU CHI PTCLDY     4   0  82 SE3       30.37S
6HR MIN TEMP:   2; 6HR MAX TEMP:   6;

PLATTEVILLE    CLEAR      6   2  86 CALM      30.36S
6HR MIN TEMP:   3; 6HR MAX TEMP:   9;

$$

WIZ056-057-062-063-064-067-068-211300-
SOUTH CENTRAL WISCONSIN

CITY           SKY/WX    TMP DP  RH WIND       PRES   REMARKS
REEDSBURG      PTCLDY     0  -3  85 CALM      30.34S
6HR MIN TEMP:   0; 6HR MAX TEMP:   3;

BARABOO/DELLS  PTCLDY     2  -2  82 CALM      30.34S
6HR MIN TEMP:   1; 6HR MAX TEMP:   6;

LONE ROCK      PTCLDY     2  -6  69 CALM      30.38R
6HR MIN TEMP:   0; 6HR MAX TEMP:   9;

MINERAL POINT  PTCLDY     7   3  85 S3        30.33R
MADISON        MOCLDY     3  -1  83 CALM      30.36S
6HR MIN TEMP:   2; 6HR MAX TEMP:   9;

MIDDLETON      MOCLDY     3  -1  80 CALM      30.36S
6HR MIN TEMP:   3; 6HR MAX TEMP:  11;

WATERTOWN      PTCLDY     2  -3  83 CALM      30.37R
6HR MIN TEMP:   1; 6HR MAX TEMP:   7;

MONROE         MOCLDY     9   5  85 SE6       30.35R WCI  -1
JANESVILLE     CLEAR      3   0  85 CALM      30.28F
$$

WIZ051-052-058>065-066-070>072-211300-
SOUTHEAST WISCONSIN

CITY           SKY/WX    TMP DP  RH WIND       PRES   REMARKS
MILWAUKEE      PTCLDY    11   0  61 W5        30.39R WCI   3
6HR MIN TEMP:  11; 6HR MAX TEMP:  14;

WAUKESHA       CLEAR      1  -2  85 CALM      30.38R
MILWAUKEE/TIMM PTCLDY     9   0  66 SW3       30.39R
RACINE         PTCLDY     9  -1  64 W6        30.41R WCI  -1
6HR MIN TEMP:   9; 6HR MAX TEMP:  13;

BURLINGTON     PTCLDY    -1  -4  86 S3        30.39R
6HR MIN TEMP:  -2; 6HR MAX TEMP:   9;

KENOSHA        PTCLDY     6   0  76 W3        30.39R
6HR MIN TEMP:   5; 6HR MAX TEMP:  10;

FOND DU LAC    MOCLDY     5  -2  72 SW6       30.36R WCI  -6
6HR MIN TEMP:   1; 6HR MAX TEMP:   9;

SHEBOYGAN      PTCLDY     5  -1  76 W3        30.36R
6HR MIN TEMP:   5; 6HR MAX TEMP:  10;

WEST BEND      PTCLDY     7   0  72 CALM      30.36S
JUNEAU         PTCLDY     2  -3  79 S3        30.38R
6HR MIN TEMP:   1; 6HR MAX TEMP:   6;

$$

LSZ147-162-211300-
LAKE SUPERIOR

STATION/POSITION TIME  TEMP    WIND        PRES    WAVE
                       AIR SEA DIR/SP/G            HT/PER
                 (UTC) (F)     (DEG/KT/KT) (MB)    (FT/S)
DEVILS ISLAND    1200   16     210/ 10/ 15 1023.9F
PORT WING        1140    7     190/  6/ 11 1022.7F
SAXON HARBOR     1100    8     190/  3/  8 1023.7
$$

LMZ867-665-643>646-211300-
LAKE MICHIGAN

STATION/POSITION TIME  TEMP    WIND        PRES    WAVE


USA.gov is the U.S. government's official web portal to all federal, state and local government web resources and services.